| time (UTC) | temp F | wind direction | speed MPH | gust MPH | rain 1hr in | rain 24hr in | rain mn in | humidity % | barometer mb |
| 20260505002430 | 49 | 261 | 1.0 | 3.0 | 0.00 | 0.13 | 0.00 | 95 | 1017.8 |
| 20260505001930 | 49 | 261 | 2.0 | 3.0 | 0.00 | 0.13 | 0.00 | 95 | 1017.7 |
| 20260505000928 | 49 | 261 | 0.0 | 0.0 | 0.00 | 0.13 | 0.00 | 95 | 1017.7 |
| 20260505000430 | 49 | 261 | 0.0 | 0.0 | 0.00 | 0.13 | 0.00 | 95 | 1017.8 |
| 20260504235430 | 49 | 261 | 1.0 | 2.0 | 0.00 | 0.13 | 0.00 | 95 | 1017.8 |
| 20260504234930 | 49 | 261 | 0.0 | 0.0 | 0.00 | 0.13 | 0.00 | 95 | 1017.7 |
| 20260504234430 | 49 | 261 | 0.0 | 0.0 | 0.00 | 0.13 | 0.00 | 95 | 1017.7 |
| 20260504233928 | 49 | 261 | 0.0 | 0.0 | 0.00 | 0.13 | 0.00 | 95 | 1017.7 |
| 20260504233431 | 49 | 261 | 0.0 | 1.0 | 0.00 | 0.13 | 0.00 | 95 | 1017.7 |
| 20260504232929 | 49 | 261 | 0.0 | 1.0 | 0.00 | 0.13 | 0.00 | 95 | 1017.7 |
| 20260504231930 | 49 | 261 | 0.0 | 0.0 | 0.00 | 0.13 | 0.00 | 95 | 1017.8 |
| 20260504231430 | 49 | 261 | 0.0 | 0.0 | 0.00 | 0.13 | 0.00 | 95 | 1017.8 |
| 20260504230930 | 49 | 261 | 0.0 | 0.0 | 0.00 | 0.13 | 0.00 | 95 | 1017.8 |
| 20260504230428 | 49 | 261 | 0.0 | 0.0 | 0.00 | 0.13 | 0.00 | 95 | 1017.8 |
| 20260504225931 | 49 | 261 | 0.0 | 0.0 | 0.00 | 0.13 | 0.00 | 95 | 1017.8 |
| 20260504225430 | 49 | 261 | 0.0 | 1.0 | 0.00 | 0.13 | 0.00 | 95 | 1017.8 |
| 20260504224931 | 49 | 261 | 0.0 | 0.0 | 0.00 | 0.13 | 0.00 | 95 | 1017.8 |
| 20260504224430 | 49 | 261 | 0.0 | 0.0 | 0.00 | 0.13 | 0.00 | 95 | 1017.8 |
| 20260504223930 | 49 | 261 | 0.0 | 0.0 | 0.00 | 0.13 | 0.00 | 95 | 1017.9 |
| 20260504223430 | 49 | 261 | 0.0 | 1.0 | 0.00 | 0.13 | 0.00 | 95 | 1017.9 |
| 20260504222931 | 49 | 261 | 1.0 | 2.0 | 0.00 | 0.13 | 0.00 | 95 | 1017.9 |
| 20260504222430 | 49 | 261 | 0.0 | 3.0 | 0.00 | 0.13 | 0.00 | 95 | 1017.9 |
| 20260504221930 | 49 | 261 | 3.0 | 5.0 | 0.00 | 0.13 | 0.00 | 95 | 1017.9 |
| 20260504221430 | 49 | 261 | 2.0 | 3.0 | 0.00 | 0.13 | 0.00 | 95 | 1017.9 |
| 20260504220930 | 49 | 261 | 3.0 | 5.0 | 0.00 | 0.13 | 0.00 | 95 | 1017.9 |
| 20260504220430 | 49 | 282 | 3.0 | 5.0 | 0.00 | 0.13 | 0.00 | 95 | 1017.9 |
| 20260504215431 | 49 | 313 | 3.0 | 5.0 | 0.00 | 0.13 | 0.13 | 95 | 1018.0 |
| 20260504214430 | 49 | 316 | 3.0 | 5.0 | 0.00 | 0.13 | 0.13 | 95 | 1018.1 |
| 20260504213929 | 49 | 316 | 4.0 | 5.0 | 0.00 | 0.13 | 0.13 | 95 | 1018.0 |
| 20260504212431 | 49 | 316 | 1.0 | 3.0 | 0.00 | 0.13 | 0.13 | 95 | 1018.1 |
| 20260504211430 | 49 | 322 | 2.0 | 5.0 | 0.00 | 0.13 | 0.13 | 95 | 1018.0 |
| 20260504210930 | 49 | 333 | 3.0 | 3.0 | 0.00 | 0.13 | 0.13 | 95 | 1017.9 |
| 20260504210431 | 49 | 333 | 1.0 | 3.0 | 0.01 | 0.13 | 0.13 | 94 | 1017.9 |
| 20260504205930 | 49 | 333 | 0.0 | 0.0 | 0.01 | 0.13 | 0.13 | 94 | 1017.9 |
| 20260504205430 | 49 | 333 | 1.0 | 3.0 | 0.01 | 0.13 | 0.13 | 94 | 1017.8 |
| 20260504204931 | 49 | 333 | 0.0 | 0.0 | 0.01 | 0.13 | 0.13 | 93 | 1017.8 |
| 20260504204431 | 50 | 333 | 0.0 | 0.0 | 0.02 | 0.13 | 0.13 | 93 | 1017.8 |
| 20260504203931 | 50 | 333 | 0.0 | 1.0 | 0.02 | 0.13 | 0.13 | 93 | 1017.7 |
| 20260504202431 | 50 | 333 | 0.0 | 3.0 | 0.02 | 0.13 | 0.13 | 92 | 1017.5 |
| 20260504201931 | 50 | 333 | 0.0 | 2.0 | 0.02 | 0.13 | 0.13 | 92 | 1017.5 |
| 20260504200428 | 51 | 336 | 0.0 | 0.0 | 0.04 | 0.12 | 0.12 | 91 | 1017.3 |
| 20260504195932 | 51 | 336 | 0.0 | 0.0 | 0.04 | 0.12 | 0.12 | 91 | 1017.3 |
| 20260504195430 | 51 | 337 | 1.0 | 5.0 | 0.05 | 0.12 | 0.12 | 90 | 1017.2 |
| 20260504194931 | 51 | 329 | 4.0 | 8.0 | 0.05 | 0.12 | 0.12 | 90 | 1017.2 |
| 20260504194430 | 51 | 256 | 3.0 | 5.0 | 0.05 | 0.11 | 0.11 | 90 | 1017.1 |
| 20260504193930 | 52 | 256 | 5.0 | 6.0 | 0.04 | 0.10 | 0.10 | 89 | 1017.0 |
| 20260504193430 | 52 | 256 | 2.0 | 3.0 | 0.04 | 0.10 | 0.10 | 89 | 1017.0 |
| 20260504192431 | 52 | 256 | 0.0 | 0.0 | 0.04 | 0.10 | 0.10 | 88 | 1016.8 |
| 20260504191931 | 53 | 256 | 0.0 | 0.0 | 0.04 | 0.10 | 0.10 | 87 | 1016.8 |
| 20260504191429 | 53 | 256 | 2.0 | 5.0 | 0.03 | 0.09 | 0.09 | 87 | 1016.7 |
| 20260504190930 | 53 | 256 | 0.0 | 3.0 | 0.02 | 0.08 | 0.08 | 85 | 1016.7 |
| 20260504190431 | 53 | 256 | 1.0 | 3.0 | 0.02 | 0.08 | 0.08 | 85 | 1016.7 |
| 20260504185931 | 54 | 256 | 2.0 | 5.0 | 0.02 | 0.08 | 0.08 | 85 | 1016.6 |
| 20260504185431 | 54 | 256 | 3.0 | 3.0 | 0.01 | 0.07 | 0.07 | 85 | 1016.6 |
| 20260504184931 | 54 | 256 | 1.0 | 6.0 | 0.01 | 0.07 | 0.07 | 84 | 1016.6 |
| 20260504184428 | 54 | 256 | 3.0 | 5.0 | 0.00 | 0.06 | 0.06 | 84 | 1016.6 |
| 20260504183929 | 54 | 256 | 4.0 | 6.0 | 0.00 | 0.06 | 0.06 | 84 | 1016.5 |
| 20260504183430 | 54 | 256 | 5.0 | 9.0 | 0.00 | 0.06 | 0.06 | 83 | 1016.5 |
| 20260504182933 | 54 | 234 | 7.0 | 12.0 | 0.00 | 0.06 | 0.06 | 83 | 1016.4 |
| 20260504182431 | 55 | 239 | 7.0 | 10.0 | 0.00 | 0.06 | 0.06 | 83 | 1016.4 |
| 20260504181930 | 55 | 226 | 6.0 | 12.0 | 0.00 | 0.06 | 0.06 | 83 | 1016.3 |
| 20260504180930 | 55 | 235 | 9.0 | 12.0 | 0.00 | 0.06 | 0.06 | 83 | 1016.2 |
| 20260504180430 | 55 | 235 | 7.0 | 12.0 | 0.00 | 0.06 | 0.06 | 83 | 1016.2 |
| 20260504175932 | 55 | 224 | 8.0 | 12.0 | 0.00 | 0.06 | 0.06 | 83 | 1016.2 |
| 20260504175430 | 55 | 236 | 7.0 | 12.0 | 0.00 | 0.06 | 0.06 | 83 | 1016.2 |
| 20260504174931 | 55 | 238 | 7.0 | 12.0 | 0.00 | 0.06 | 0.06 | 83 | 1016.2 |
| 20260504173931 | 55 | 225 | 8.0 | 12.0 | 0.00 | 0.06 | 0.06 | 82 | 1016.2 |
| 20260504173430 | 55 | 227 | 7.0 | 10.0 | 0.00 | 0.06 | 0.06 | 82 | 1016.3 |
| 20260504172932 | 55 | 230 | 9.0 | 13.0 | 0.00 | 0.06 | 0.06 | 82 | 1016.3 |
| 20260504172430 | 55 | 235 | 7.0 | 12.0 | 0.00 | 0.06 | 0.06 | 81 | 1016.3 |
| 20260504171930 | 56 | 232 | 7.0 | 12.0 | 0.00 | 0.06 | 0.06 | 82 | 1016.3 |
| 20260504171430 | 56 | 225 | 7.0 | 10.0 | 0.00 | 0.06 | 0.06 | 84 | 1016.3 |
| 20260504170929 | 55 | 228 | 7.0 | 12.0 | 0.00 | 0.06 | 0.06 | 85 | 1016.3 |
| 20260504170431 | 55 | 226 | 6.0 | 9.0 | 0.00 | 0.06 | 0.06 | 83 | 1016.3 |
| 20260504150931 | 53 | 246 | 2.0 | 5.0 | 0.04 | 0.06 | 0.06 | 95 | 1016.8 |
| 20260504140930 | 61 | 220 | 6.0 | 9.0 | 0.00 | 0.02 | 0.02 | 75 | 1016.1 |
| 20260504140430 | 59 | 202 | 5.0 | 9.0 | 0.00 | 0.02 | 0.02 | 75 | 1016.1 |
| 20260504130430 | 54 | 228 | 5.0 | 7.0 | 0.01 | 0.02 | 0.02 | 88 | 1016.8 |
| 20260504100430 | 59 | 230 | 5.0 | 9.0 | 0.00 | 0.01 | 0.01 | 82 | 1016.5 |
| 20260504081931 | 53 | 328 | 0.0 | 3.0 | 0.00 | 0.01 | 0.01 | 94 | 1016.4 |
| 20260504081431 | 53 | 328 | 1.0 | 3.0 | 0.00 | 0.01 | 0.01 | 95 | 1016.5 |
| 20260504080930 | 51 | 328 | 0.0 | 2.0 | 0.00 | 0.01 | 0.01 | 95 | 1016.5 |
| 20260504080430 | 50 | 328 | 1.0 | 2.0 | 0.00 | 0.01 | 0.01 | 96 | 1016.5 |
| 20260504050430 | 43 | 328 | 0.0 | 0.0 | 0.00 | 0.00 | 0.00 | 99 | 1015.6 |
| 20260504045932 | 43 | 328 | 0.0 | 0.0 | 0.00 | 0.00 | 0.00 | 99 | 1015.6 |
| 20260504044930 | 43 | 328 | 0.0 | 0.0 | 0.00 | 0.00 | 0.00 | 99 | 1015.5 |
| 20260504044430 | 44 | 328 | 1.0 | 3.0 | 0.00 | 0.00 | 0.00 | 99 | 1015.6 |
| 20260504043931 | 44 | 328 | 2.0 | 3.0 | 0.00 | 0.00 | 0.00 | 99 | 1015.6 |
| 20260504043430 | 44 | 328 | 3.0 | 3.0 | 0.00 | 0.00 | 0.00 | 99 | 1015.6 |
| 20260504042931 | 44 | 328 | 0.0 | 0.0 | 0.00 | 0.00 | 0.00 | 99 | 1015.6 |
| 20260504042430 | 44 | 328 | 1.0 | 6.0 | 0.00 | 0.00 | 0.00 | 98 | 1015.6 |
| 20260504041931 | 44 | 317 | 3.0 | 6.0 | 0.00 | 0.00 | 0.00 | 98 | 1015.6 |
| 20260504041429 | 44 | 242 | 3.0 | 5.0 | 0.00 | 0.00 | 0.00 | 98 | 1015.4 |
| 20260504040930 | 44 | 242 | 0.0 | 0.0 | 0.00 | 0.00 | 0.00 | 98 | 1015.4 |
| 20260504040430 | 44 | 242 | 0.0 | 0.0 | 0.00 | 0.00 | 0.00 | 99 | 1015.4 |
| 20260504035929 | 44 | 242 | 0.0 | 0.0 | 0.00 | 0.00 | 0.00 | 99 | 1015.4 |
| 20260504035430 | 44 | 242 | 1.0 | 3.0 | 0.00 | 0.00 | 0.00 | 98 | 1015.5 |
| 20260504034931 | 44 | 242 | 1.0 | 3.0 | 0.00 | 0.00 | 0.00 | 98 | 1015.5 |
| 20260504034431 | 44 | 242 | 0.0 | 3.0 | 0.00 | 0.00 | 0.00 | 98 | 1015.5 |
| 20260504033930 | 44 | 242 | 2.0 | 5.0 | 0.00 | 0.00 | 0.00 | 98 | 1015.5 |
| 20260504033428 | 44 | 242 | 2.0 | 3.0 | 0.00 | 0.00 | 0.00 | 98 | 1015.5 |
| 20260504032930 | 44 | 242 | 1.0 | 3.0 | 0.00 | 0.00 | 0.00 | 98 | 1015.5 |
| 20260504032430 | 44 | 242 | 0.0 | 0.0 | 0.00 | 0.00 | 0.00 | 98 | 1015.6 |
| 20260504031930 | 44 | 242 | 0.0 | 0.0 | 0.00 | 0.00 | 0.00 | 98 | 1015.6 |
| 20260504031430 | 44 | 242 | 0.0 | 1.0 | 0.00 | 0.00 | 0.00 | 98 | 1015.6 |
| 20260504030930 | 44 | 242 | 1.0 | 5.0 | 0.00 | 0.00 | 0.00 | 98 | 1015.6 |
| 20260504030431 | 44 | 242 | 5.0 | 5.0 | 0.00 | 0.00 | 0.00 | 98 | 1015.5 |
| 20260504025931 | 44 | 242 | 1.0 | 3.0 | 0.00 | 0.00 | 0.00 | 97 | 1015.6 |
| 20260504025431 | 44 | 242 | 0.0 | 0.0 | 0.00 | 0.00 | 0.00 | 97 | 1015.5 |
| 20260504024931 | 44 | 242 | 0.0 | 0.0 | 0.00 | 0.00 | 0.00 | 97 | 1015.6 |
| 20260504023931 | 44 | 242 | 0.0 | 0.0 | 0.00 | 0.00 | 0.00 | 97 | 1015.5 |
| 20260504022931 | 44 | 242 | 0.0 | 0.0 | 0.00 | 0.00 | 0.00 | 97 | 1015.6 |
| 20260504022430 | 44 | 242 | 0.0 | 0.0 | 0.00 | 0.00 | 0.00 | 97 | 1015.5 |
| 20260504021930 | 45 | 242 | 0.0 | 2.0 | 0.00 | 0.00 | 0.00 | 97 | 1015.5 |
| 20260504021430 | 45 | 242 | 0.0 | 0.0 | 0.00 | 0.00 | 0.00 | 97 | 1015.4 |
| 20260504020929 | 45 | 242 | 1.0 | 3.0 | 0.00 | 0.00 | 0.00 | 97 | 1015.4 |
| 20260504020431 | 45 | 242 | 0.0 | 2.0 | 0.00 | 0.00 | 0.00 | 97 | 1015.4 |
| 20260504015931 | 45 | 242 | 0.0 | 0.0 | 0.00 | 0.00 | 0.00 | 97 | 1015.4 |
| 20260504015430 | 45 | 242 | 0.0 | 0.0 | 0.00 | 0.00 | 0.00 | 96 | 1015.4 |
| 20260504014931 | 45 | 242 | 0.0 | 0.0 | 0.00 | 0.00 | 0.00 | 96 | 1015.4 |
| 20260504014428 | 45 | 242 | 0.0 | 0.0 | 0.00 | 0.00 | 0.00 | 96 | 1015.3 |
| 20260504013930 | 45 | 242 | 0.0 | 0.0 | 0.00 | 0.00 | 0.00 | 96 | 1015.4 |
| 20260504013430 | 45 | 242 | 0.0 | 0.0 | 0.00 | 0.00 | 0.00 | 96 | 1015.4 |
| 20260504012931 | 45 | 242 | 0.0 | 0.0 | 0.00 | 0.00 | 0.00 | 96 | 1015.5 |
| 20260504012430 | 45 | 242 | 0.0 | 0.0 | 0.00 | 0.00 | 0.00 | 96 | 1015.5 |
| 20260504011931 | 46 | 242 | 1.0 | 2.0 | 0.00 | 0.00 | 0.00 | 96 | 1015.5 |
| 20260504011431 | 46 | 242 | 1.0 | 3.0 | 0.00 | 0.00 | 0.00 | 96 | 1015.5 |
| 20260504010431 | 46 | 242 | 3.0 | 3.0 | 0.00 | 0.00 | 0.00 | 95 | 1015.5 |
| 20260504005930 | 46 | 242 | 2.0 | 2.0 | 0.00 | 0.00 | 0.00 | 95 | 1015.5 |
| 20260504003930 | 47 | 242 | 0.0 | 0.0 | 0.00 | 0.00 | 0.00 | 95 | 1015.5 |
| 20260504003431 | 47 | 242 | 0.0 | 0.0 | 0.00 | 0.00 | 0.00 | 95 | 1015.5 |
| 20260504002931 | 47 | 242 | 0.0 | 0.0 | 0.00 | 0.00 | 0.00 | 95 | 1015.6 |